YACHTS Weather Reports


time (UTC)temp
C
wind
direction
speed
KPH
gust
KPH
rain 1hr
cm
rain 24hr
cm
rain mn
cm
humidity
%
barometer
mb
20260904051107 11 0 0.0 0.0 0.25 2.74 2.74 94 1007.0
20260904050554 12 0 0.0 0.0 0.23 2.72 2.72 94 1007.2
20260904045528 12 0 0.0 0.0 0.18 2.64 2.64 94 1007.2
20260904045016 11 0 0.0 0.0 0.18 2.57 2.59 94 1007.3
20260904043949 12 0 0.0 0.0 0.23 2.54 2.54 94 1007.1
20260904043436 12 0 0.0 0.0 0.25 2.51 2.51 94 1007.1
20260904042923 12 0 0.0 0.0 0.30 2.51 2.51 93 1007.1
20260904042410 12 0 0.0 6.4 0.30 2.51 2.51 93 1007.2
20260904041858 12 0 0.0 6.4 0.30 2.51 2.51 93 1007.2
20260904041344 12 92 0.0 6.4 0.30 2.51 2.51 93 1007.2
20260904040831 12 0 0.0 0.0 0.28 2.49 2.49 93 1007.2
20260904040318 12 0 0.0 0.0 0.28 2.46 2.46 93 1007.3
20260904035805 12 0 0.0 6.4 0.23 2.41 2.41 93 1007.4
20260904035408 12 232 0.0 6.4 0.23 2.41 2.41 93 1007.5
20260904035252 12 232 0.0 6.4 0.23 2.41 2.41 93 1007.5
20260904034739 12 0 0.0 6.4 0.18 2.39 2.39 93 1007.6
20260904034226 12 232 0.0 12.9 0.18 2.31 2.34 93 1007.5
20260904033713 12 184 0.0 12.9 0.18 2.29 2.29 93 1007.4
20260904033200 12 175 0.0 12.9 0.18 2.26 2.26 93 1007.4
20260904032647 12 233 1.6 12.9 0.15 2.24 2.24 93 1007.4
20260904032135 12 201 4.8 20.9 0.15 2.21 2.21 93 1007.4
20260904031622 12 242 0.0 20.9 0.13 2.18 2.21 93 1007.5
20260904031108 12 141 0.0 20.9 0.13 2.18 2.18 93 1007.4
20260904030555 12 236 1.6 22.5 0.15 2.18 2.18 93 1007.3
20260904025529 12 0 3.2 22.5 0.15 2.16 2.16 92 1007.2
20260904025016 12 191 6.4 22.5 0.15 2.16 2.16 92 1007.4
20260904024503 12 247 4.8 14.5 0.13 2.16 2.16 92 1007.4
20260904023950 12 0 0.0 0.0 0.13 2.13 2.13 92 1007.5
20260904023438 12 142 8.0 25.7 0.13 2.08 2.08 92 1007.5
20260904022924 13 302 6.4 25.7 0.15 2.06 2.06 92 1007.5
20260904022411 13 214 3.2 25.7 0.15 2.06 2.06 92 1007.4
20260904021858 13 254 0.0 20.9 0.15 2.06 2.06 92 1007.5
20260904021345 13 217 4.8 20.9 0.15 2.06 2.06 92 1007.6
20260904020832 13 211 8.0 20.9 0.13 2.06 2.06 92 1007.7
20260904020319 13 183 0.0 17.7 0.13 2.01 2.01 92 1007.6
20260904015806 13 159 4.8 16.1 0.18 2.01 2.01 92 1007.5
20260904014740 13 137 1.6 17.7 0.18 2.01 2.01 92 1007.5
20260904013715 12 189 8.0 17.7 0.15 2.01 2.01 92 1007.6
20260904013201 13 197 0.0 12.9 0.15 1.96 1.96 91 1007.6
20260904012648 12 140 3.2 25.7 0.18 1.93 1.93 91 1007.6
20260904012135 13 173 6.4 25.7 0.18 1.91 1.91 91 1007.6
20260904011622 13 173 8.0 25.7 0.18 1.91 1.91 91 1007.6
20260904011109 13 116 3.2 22.5 0.18 1.91 1.91 91 1007.6
20260904010556 12 235 1.6 19.3 0.15 1.91 1.91 91 1007.6
20260904010043 12 137 0.0 20.9 0.15 1.88 1.91 91 1007.7
20260904005530 13 158 0.0 20.9 0.10 1.85 1.85 91 1007.7
20260904005017 13 5 3.2 20.9 0.10 1.83 1.83 91 1007.6
20260904004504 13 165 4.8 16.1 0.10 1.83 1.83 91 1007.6
20260904003951 13 239 0.0 11.3 0.10 1.83 1.83 91 1007.7
20260904002925 13 232 6.4 17.7 0.03 1.80 1.80 90 1007.7
20260904001859 13 182 8.0 14.5 0.03 1.73 1.73 91 1007.7
20260904001346 13 170 9.7 30.6 0.03 1.73 1.73 91 1007.7
20260904000833 13 236 4.8 30.6 0.03 1.73 1.73 91 1007.8
20260904000320 14 180 4.8 30.6 0.03 1.73 1.73 91 1007.9
20260903235807 13 200 4.8 14.5 0.03 1.73 1.73 91 1007.8
20260903235254 13 242 1.6 20.9 0.03 1.73 1.73 91 1007.8
20260903234741 13 144 9.7 20.9 0.03 1.73 1.73 91 1007.9
20260903234228 13 184 4.8 20.9 0.03 1.73 1.73 91 1007.9
20260903233715 13 221 1.6 29.0 0.03 1.73 1.73 91 1007.9
20260903233202 13 204 6.4 29.0 0.03 1.73 1.73 91 1008.0
20260903232649 13 228 1.6 29.0 0.00 1.73 1.73 91 1008.0
20260903232136 13 124 8.0 24.1 0.00 1.73 1.73 91 1008.1
20260903231623 13 89 6.4 17.7 0.00 1.70 1.70 91 1008.2
20260903231110 13 161 9.7 17.7 0.00 1.70 1.70 91 1008.2
20260903230557 14 214 0.0 27.4 0.00 1.70 1.70 91 1008.2
20260903230044 14 238 6.4 27.4 0.00 1.70 1.70 91 1008.3
20260903225531 14 243 4.8 27.4 0.00 1.78 1.70 91 1008.3
20260903225018 14 253 6.4 20.9 0.00 1.78 1.70 91 1008.3
20260903224505 14 246 12.9 20.9 0.00 1.78 1.70 91 1008.4
20260903223952 14 257 8.0 25.7 0.00 1.78 1.70 92 1008.3
20260903222926 14 270 3.2 25.7 0.00 1.78 1.70 92 1008.3
20260903222413 13 158 4.8 19.3 0.00 1.78 1.70 92 1008.2
20260903221347 14 246 9.7 32.2 0.00 1.78 1.70 92 1008.4
20260903220321 13 228 11.3 19.3 0.00 1.78 1.70 92 1008.3
20260903215808 14 217 9.7 19.3 0.00 1.88 1.70 92 1008.3
20260903215255 14 127 4.8 17.7 0.00 1.88 1.70 92 1008.4
20260903214742 14 194 6.4 17.7 0.00 1.88 1.70 92 1008.4
20260903213716 14 170 0.0 35.4 0.03 1.88 1.70 93 1008.5
20260903213203 14 196 8.0 35.4 0.03 1.88 1.70 93 1008.4
20260903212650 14 137 12.9 35.4 0.05 1.88 1.70 93 1008.5
20260903212137 14 235 8.0 25.7 0.05 1.88 1.70 93 1008.5
20260903211624 14 240 0.0 19.3 0.15 1.88 1.70 93 1008.5
20260903205532 13 245 4.8 24.1 0.15 1.96 1.70 94 1008.4
20260903204506 13 296 3.2 17.7 0.15 1.96 1.70 93 1008.5
20260903203953 13 246 6.4 17.7 0.15 1.96 1.70 93 1008.5
20260903203440 13 131 4.8 20.9 0.13 1.96 1.68 94 1008.6
20260903202927 13 271 0.0 20.9 0.10 1.96 1.68 93 1008.8
20260903202414 13 194 3.2 20.9 0.10 1.96 1.65 93 1008.7
20260903201348 13 277 8.0 19.3 0.00 1.96 1.57 93 1008.8
20260903200322 14 130 4.8 25.7 0.05 1.96 1.55 94 1008.6
20260903194743 13 148 0.0 17.7 0.28 2.13 1.55 94 1008.9
20260903193717 12 240 0.0 14.5 0.41 2.13 1.55 94 1008.9
20260903192651 12 204 0.0 14.5 0.43 2.13 1.55 94 1008.9
20260903192138 12 222 0.0 11.3 0.43 2.13 1.55 94 1009.0
20260903190046 11 102 4.8 24.1 0.51 2.13 1.50 93 1009.5
20260903185021 11 154 1.6 8.0 0.41 1.88 1.37 93 1009.4
20260903183954 11 0 0.0 0.0 0.30 1.88 1.27 93 1009.4
20260903183441 11 0 0.0 0.0 0.20 1.88 1.24 93 1009.4
20260903182927 11 0 0.0 0.0 0.23 1.88 1.14 93 1009.4
20260903182415 11 0 0.0 16.1 0.23 1.88 1.12 93 1009.5
20260903181901 11 0 0.0 16.1 0.18 1.88 1.09 93 1009.4
20260903181349 11 172 0.0 16.1 0.18 1.88 1.07 93 1009.5
20260903180835 11 236 0.0 11.3 0.15 1.88 1.02 93 1009.4
20260903180322 11 154 0.0 11.3 0.15 1.88 0.99 93 1009.3
20260903175809 12 189 0.0 8.0 0.13 1.93 0.99 93 1009.2
20260903175257 12 245 0.0 17.7 0.13 1.93 0.97 92 1009.2
20260903174744 12 267 0.0 17.7 0.13 1.93 0.97 92 1009.2
20260903174231 11 204 1.6 17.7 0.13 1.93 0.97 92 1009.3
20260903173717 12 282 0.0 22.5 0.10 1.93 0.94 92 1009.3
20260903173205 12 165 6.4 22.5 0.10 1.93 0.94 92 1009.3
20260903172651 12 176 1.6 22.5 0.05 1.93 0.91 92 1009.2
20260903172139 12 0 0.0 19.3 0.05 1.93 0.91 92 1009.2
20260903171625 12 225 8.0 19.3 0.03 1.93 0.89 92 1009.1
20260903171112 13 85 6.4 25.7 0.03 1.93 0.86 92 1009.0
20260903170559 13 245 6.4 25.7 0.03 1.93 0.84 91 1009.2
20260903170047 13 148 4.8 25.7 0.03 1.93 0.84 92 1009.1
20260903165533 13 229 1.6 22.5 0.03 2.11 0.84 92 1009.1
20260903165020 13 261 11.3 22.5 0.03 2.11 0.84 92 1008.9
20260903164508 13 238 4.8 19.3 0.03 2.11 0.84 92 1008.7
20260903163954 13 155 6.4 22.5 0.03 2.11 0.84 92 1008.7
20260903163441 13 218 1.6 22.5 0.03 2.11 0.84 92 1008.6
20260903162929 13 247 3.2 22.5 0.03 2.11 0.84 92 1008.7
20260903162417 13 273 4.8 27.4 0.03 2.11 0.84 92 1008.8
20260903161902 13 144 6.4 27.4 0.03 2.11 0.84 93 1008.9
20260903161349 13 172 1.6 27.4 0.03 2.11 0.84 93 1009.0
20260903155810 13 266 1.6 29.0 0.00 2.29 0.81 93 1009.2
20260903155257 13 158 8.0 29.0 0.00 2.29 0.81 93 1009.2
20260903154745 13 291 6.4 14.5 0.00 2.29 0.81 93 1009.3
20260903154231 13 148 6.4 41.8 0.00 2.29 0.81 93 1009.1
20260903153718 13 249 8.0 41.8 0.00 2.29 0.81 93 1009.1
20260903153206 13 267 12.9 41.8 0.00 2.29 0.81 93 1009.0
20260903152723 13 240 4.8 30.6 0.00 2.29 0.81 93 1009.0
20260903152652 13 240 4.8 30.6 0.00 2.29 0.81 93 1009.0
20260903152139 12 205 3.2 20.9 0.00 2.29 0.81 94 1008.9
20260903151626 12 61 0.0 20.9 0.00 2.29 0.81 94 1009.0
20260903151113 12 267 0.0 20.9 0.00 2.29 0.81 93 1009.0
20260903150600 12 170 0.0 8.0 0.00 2.29 0.81 93 1009.0
20260903150047 12 130 0.0 27.4 0.00 2.29 0.81 93 1009.0
20260903145534 12 229 3.2 27.4 0.00 2.41 0.81 93 1009.0
20260903145021 12 238 3.2 14.5 0.00 2.41 0.81 93 1008.9
20260903144508 12 204 0.0 6.4 0.00 2.41 0.81 93 1008.8
20260903143955 13 204 8.0 32.2 0.00 2.41 0.81 93 1008.9
20260903143442 13 175 6.4 32.2 0.00 2.41 0.81 93 1008.9
20260903142929 13 162 12.9 32.2 0.00 2.41 0.81 93 1008.9
20260903142416 13 186 4.8 27.4 0.00 2.41 0.81 93 1008.8
20260903141904 13 175 6.4 27.4 0.00 2.41 0.81 93 1008.9
20260903141350 13 233 0.0 11.3 0.00 2.41 0.81 93 1008.9
20260903140837 13 184 1.6 41.8 0.00 2.41 0.81 93 1008.9
20260903140324 13 183 6.4 41.8 0.00 2.41 0.81 93 1008.8
20260903135811 13 162 8.0 41.8 0.00 2.44 0.81 94 1008.9
20260903135258 13 169 3.2 16.1 0.00 2.44 0.81 93 1008.7
20260903134746 13 275 0.0 30.6 0.00 2.44 0.81 94 1008.8
20260903134232 13 169 3.2 30.6 0.00 2.44 0.81 94 1008.8
20260903133719 13 175 1.6 30.6 0.00 2.44 0.81 94 1008.8
20260903133206 13 242 3.2 19.3 0.00 2.44 0.81 94 1008.8
20260903132653 13 210 3.2 19.3 0.03 2.44 0.81 94 1008.8
20260903132140 13 208 0.0 22.5 0.03 2.44 0.81 93 1008.8
20260903131627 13 175 4.8 22.5 0.03 2.44 0.81 93 1008.7
20260903131114 13 176 1.6 22.5 0.03 2.44 0.81 94 1008.8
20260903130601 12 182 4.8 16.1 0.03 2.44 0.81 94 1008.7
20260903130048 13 268 1.6 33.8 0.03 2.44 0.81 94 1008.9
20260903125536 13 238 0.0 33.8 0.15 2.41 0.81 94 1008.9
20260903125022 12 5 0.0 33.8 0.15 2.41 0.81 94 1008.9
20260903124509 13 32 4.8 24.1 0.20 2.41 0.81 94 1008.9
20260903123956 12 218 8.0 24.1 0.20 2.41 0.81 94 1008.8
20260903123443 12 173 0.0 22.5 0.33 2.41 0.81 94 1008.9
20260903122930 12 212 3.2 22.5 0.38 2.41 0.81 94 1008.8
20260903122417 13 211 6.4 19.3 0.38 2.41 0.79 94 1008.8
20260903121904 12 177 4.8 19.3 0.64 2.41 0.79 94 1008.9
20260903121351 12 119 0.0 19.3 0.64 2.41 0.79 94 1008.9
20260903120838 12 263 4.8 19.3 0.64 2.41 0.79 94 1009.0
20260903120325 12 270 8.0 19.3 0.64 2.41 0.79 94 1009.1
20260903115812 12 0 0.0 0.0 0.51 1.78 0.79 93 1009.3
20260903114746 12 197 3.2 20.9 0.48 1.78 0.66 93 1009.4
20260903114233 12 247 4.8 20.9 0.48 1.78 0.64 93 1009.5
20260903113720 13 284 0.0 14.5 0.46 1.78 0.56 93 1009.5
20260903113207 12 261 8.0 25.7 0.46 1.78 0.48 93 1009.6
20260903112654 12 162 4.8 25.7 0.38 1.78 0.46 93 1009.6
20260903111628 13 221 3.2 22.5 0.13 1.78 0.33 92 1009.4
20260903111115 13 246 8.0 32.2 0.13 1.78 0.18 92 1009.3
20260903110602 12 284 8.0 32.2 0.13 1.78 0.15 92 1009.0
20260903110049 13 75 3.2 32.2 0.13 1.78 0.15 92 1009.1
20260903105536 13 161 9.7 19.3 0.13 1.65 0.15 92 1009.1
20260903105023 13 285 8.0 19.3 0.13 1.65 0.15 92 1009.0
20260903104510 13 254 3.2 17.7 0.10 1.65 0.15 92 1009.0
20260903103957 13 0 0.0 16.1 0.10 1.65 0.13 92 1009.1
20260903103444 13 236 6.4 19.3 0.00 1.65 0.05 92 1009.3
20260903102931 13 238 1.6 19.3 0.03 1.65 0.03 92 1009.2
20260903102454 13 116 3.2 24.1 0.03 1.65 0.03 92 1009.3
20260903102418 13 261 3.2 19.3 0.03 1.65 0.03 92 1009.2
20260903101905 13 148 3.2 24.1 0.03 1.65 0.03 92 1009.1
20260903101352 13 116 3.2 24.1 0.03 1.65 0.03 92 1009.3
20260903100840 13 141 8.0 24.1 0.03 1.65 0.03 92 1009.3
20260903095813 13 275 3.2 33.8 0.03 1.63 0.03 92 1009.2
20260903095300 13 253 4.8 33.8 0.03 1.63 0.03 92 1009.2
20260903094747 13 245 9.7 25.7 0.03 1.63 0.03 92 1009.3
20260903094234 13 266 3.2 14.5 0.03 1.63 0.03 92 1009.3
20260903093721 13 236 4.8 27.4 0.03 1.63 0.03 92 1009.3
20260903093208 13 354 6.4 27.4 0.03 1.63 0.03 92 1009.3
20260903092655 13 176 6.4 27.4 0.00 1.63 0.03 92 1009.3
20260903092142 13 288 1.6 25.7 0.00 1.63 0.00 92 1009.4
20260903091629 13 203 1.6 25.7 0.00 1.63 0.00 92 1009.4
20260903091116 13 190 4.8 20.9 0.00 1.63 0.00 92 1009.5
20260903090603 13 238 4.8 20.9 0.00 1.63 0.00 92 1009.6
20260903090050 13 173 3.2 19.3 0.00 1.63 0.00 92 1009.6
20260903085537 13 107 6.4 17.7 0.00 1.63 0.00 92 1009.6
20260903085024 13 288 3.2 25.7 0.00 1.63 0.00 92 1009.6
20260903084511 13 133 6.4 25.7 0.00 1.63 0.00 92 1009.6
20260903083958 13 312 4.8 25.7 0.00 1.63 0.00 92 1009.6
20260903083445 13 259 3.2 20.9 0.00 1.63 0.00 92 1009.7
20260903082932 13 95 3.2 20.9 0.00 1.63 0.00 92 1009.7
20260903081906 13 256 6.4 20.9 0.00 1.63 0.00 92 1009.7
20260903081353 13 277 3.2 20.9 0.00 1.63 0.00 92 1009.7
20260903080840 13 203 8.0 20.9 0.00 1.63 0.00 92 1009.7
20260903080327 13 278 0.0 9.7 0.00 1.63 0.00 92 1009.7
20260903075814 13 263 3.2 20.9 0.00 1.63 0.00 92 1009.7
20260903075301 13 250 0.0 20.9 0.00 1.63 1.63 92 1009.7
20260903074748 13 275 6.4 20.9 0.00 1.63 1.63 92 1009.6
20260903074236 13 194 0.0 16.1 0.00 1.63 1.63 92 1009.7
20260903073722 13 214 4.8 16.1 0.00 1.63 1.63 92 1009.7
20260903073209 13 288 0.0 22.5 0.00 1.63 1.63 92 1009.8
20260903072656 13 0 0.0 22.5 0.00 1.63 1.63 92 1009.7
20260903072143 13 154 4.8 22.5 0.00 1.63 1.63 92 1009.7
20260903071630 13 169 6.4 22.5 0.00 1.63 1.63 92 1009.7
20260903071117 13 233 1.6 22.5 0.00 1.63 1.63 92 1009.8
20260903070604 13 261 4.8 22.5 0.00 1.63 1.63 92 1009.8
20260903070051 13 148 4.8 20.9 0.00 1.63 1.63 92 1009.8
20260903065538 13 278 4.8 20.9 0.00 1.63 1.63 92 1009.7
20260903065026 13 151 3.2 20.9 0.00 1.63 1.63 92 1009.7
20260903063959 13 0 6.4 17.7 0.00 1.63 1.63 92 1009.7
20260903063446 13 130 9.7 17.7 0.00 1.63 1.63 92 1009.7
20260903062933 13 154 4.8 17.7 0.00 1.63 1.63 92 1009.8
20260903062420 13 219 3.2 17.7 0.00 1.63 1.63 93 1009.8
20260903061907 13 155 3.2 12.9 0.00 1.63 1.63 92 1009.9
20260903061354 13 179 6.4 24.1 0.00 1.63 1.63 92 1009.8
20260903060841 13 217 0.0 24.1 0.00 1.63 1.63 92 1009.9
20260903060328 13 198 6.4 24.1 0.00 1.63 1.63 93 1009.8
20260903055815 13 133 3.2 19.3 0.00 1.63 1.63 93 1009.9
20260903055302 13 93 3.2 19.3 0.00 1.63 1.63 93 1009.9
20260903054748 13 250 3.2 14.5 0.00 1.63 1.63 93 1009.8
20260903054236 13 278 6.4 14.5 0.00 1.63 1.63 93 1009.8
20260903053722 13 144 1.6 20.9 0.00 1.63 1.63 93 1009.8
20260903053209 13 212 1.6 20.9 0.00 1.63 1.63 93 1009.8
20260903052656 13 162 0.0 6.4 0.00 1.63 1.63 93 1009.9
20260903052144 13 184 6.4 20.9 0.00 1.63 1.63 93 1009.9
20260903051631 13 180 0.0 20.9 0.00 1.63 1.63 93 1009.9